Погода в Старом Шайгово

Россия / Республика Мордовия     54°18′14″N   44°28′06″E
темп.,
°C
ветер,
м/с
пор.,
м/с
влажн.,
%
обл.,
%
осадки,
мм/ч
давл.,
гПа
погр.,
м
9 мая, вс
вс900:00+9ююв3985100 0.0 1009167
03:00+11ююв61481100 0.7 1008411
06:00+11ююв61484100 0.2 1007419
09:00+15ююв61176100 0.3 1007723
12:00+13ююв61293100 3.9 1007551
15:00+15ююз81385100 6.4 1008822
18:00+10з4796100 0.5 1011414
21:00+8зюз4797100 1.7 1014381
10 мая, пн
пн1000:00+8зсз3596100 0.6 1015194
03:00+8сз2598100 1.8 1017290
06:00+8с5997100 1.1 1018471
09:00+7с61097100 3.8 1021437
12:00+8с71295100 1.4 1022467
15:00+10ссв71089100 1.4 1023603
18:00+9ссв81391100 0.0 1023454
21:00+8ссв61494100 0.0 1024389
11 мая, вт
вт1100:00+8св7169596 0.0 1024386
03:00+7св61496100 0.0 1025355
06:00+8св71593100 0.0 1025370
09:00+13всв7118498 0.0 1026403
12:00+17всв71077100 0.0 1026597
15:00+19всв6107252 0.0 10251054
18:00+18всв712775 0.0 1025501
21:00+14всв6149010 0.1 1026324
12 мая, ср
ср1200:00+13в239182 0.0 102644
03:00+11всв349264 0.0 102555
06:00+13в5128298 0.0 1026283
09:00+18в6106887 0.0 1025527
12:00+21в6106089 0.0 10251172
15:00+22вюв695852 0.0 10251582
18:00+19вюв5116731 0.0 1024342
21:00+16в41176100 0.0 1025260
13 мая, чт
чт1300:00+13вюв51189100 0.4 1025257
03:00+13в41084100 0.6 1024203
06:00+14в5137854 0.0 1024343
09:00+18вюв61366100 0.0 1022645
12:00+20юв6862100 0.0 10221212
15:00+15в4108756 0.9 1022406
18:00+17юв4118263 0.6 1021387
21:00+14вюв4119015 0.8 1021205